TIME,PRES,T(CTD),SAL,OXYGEN,RAWTEMP,T(OPTODE),TCPHASE,CHECK
1343140109,293.3599853515625000,18.0016002655029300,36.5467987060546900,223.8085937500000000,258.8330078125000000,18.0083503723144530,31.1452598571777340,11299
1343140177,287.2600097656250000,18.0258007049560550,36.5483016967773440,223.2104034423828000,258.0838012695312500,18.0313396453857420,31.1656398773193360,8763
1343140240,281.5400085449219000,18.0501003265380860,36.5499992370605500,222.0764007568359400,256.9708862304687500,18.0654792785644530,31.2085304260253900,764
1343140313,274.9299926757812500,18.0797004699707030,36.5535011291503900,222.4734954833984400,256.0531921386719000,18.0936298370361330,31.1755199432373050,46193
1343140376,269.2099914550781000,18.1215991973876950,36.5600013732910160,223.7545928955078000,254.7563018798828000,18.1334209442138670,31.0917701721191400,2718
1343140439,263.3399963378906000,18.1555995941162100,36.5676002502441400,224.0034027099609400,253.5328063964843800,18.1709499359130860,31.0622692108154300,33780
1343140502,257.3800048828125000,18.1606998443603500,36.5607986450195300,224.2908020019531200,253.8112945556640600,18.1624107360839840,31.0516204833984380,8296
1343140565,251.5000000000000000,18.1767997741699220,36.5545997619628900,224.8045959472656200,252.6591949462890600,18.1977500915527340,31.0096797943115230,56799
1343140637,244.7799987792968800,18.2672004699707030,36.5718002319335940,223.6067962646484400,250.1096954345703000,18.2759609222412100,31.0358295440673830,60596
1343140693,239.3999938964843800,18.2702999114990230,36.5625000000000000,224.2942047119140600,249.7003936767578000,18.2885093688964840,30.9952793121337900,17884
1343140757,233.1999969482422000,18.3278999328613280,36.5643997192382800,224.9387969970703000,248.2395019531250000,18.3333206176757800,30.9425601959228500,7103
1343140822,226.8699951171875000,18.3871002197265620,36.5676002502441400,225.0894012451172000,246.2187957763672000,18.3952999114990230,30.9070892333984380,57839
1343140885,220.8800048828125000,18.4085998535156250,36.5643005371093750,225.6425018310547000,245.5171966552734400,18.4168205261230470,30.8699893951416000,16666
1343140941,215.6399993896484400,18.4501991271972660,36.5699005126953100,225.6517944335937500,244.9949035644531200,18.4328403472900400,30.8620796203613280,5746
1343141013,209.0599975585937500,18.4626998901367200,36.5527992248535160,228.0010070800781200,243.4644927978515600,18.4797801971435550,30.7235908508300780,45550
1343141079,203.2100067138672000,18.5319004058837900,36.5610008239746100,226.4824066162109400,241.4799041748047000,18.5406494140625000,30.7725391387939450,4380
1343141142,197.6000061035156200,18.5662994384765620,36.5485992431640600,229.0863952636718800,240.2857055664062500,18.5772705078125000,30.6266307830810550,36719
1343141216,191.2100067138672000,18.6453990936279300,36.5541992187500000,228.6837005615234400,237.8968048095703000,18.6505393981933600,30.6140995025634770,14646
1343141289,185.1900024414062500,18.6805000305175780,36.5499992370605500,229.7740020751953000,236.4929962158203000,18.6935901641845700,30.5413608551025400,58103
1343141354,179.8699951171875000,18.7619991302490230,36.5507011413574200,229.7929992675781200,234.0063018798828000,18.7698497772216800,30.5067996978759770,57109
1343141436,173.3000030517578000,18.8356990814209000,36.5579986572265600,227.3972930908203000,231.7127075195312500,18.8401908874511720,30.5948104858398440,9868
1343141510,167.2700042724609400,18.8696994781494140,36.5555992126464840,227.6820068359375000,230.6268005371093800,18.8734893798828120,30.5659599304199220,39342
1343141583,161.3099975585937500,18.8383998870849600,36.5362014770507800,233.1132965087890600,231.3264007568359400,18.8520393371582030,30.3088893890380860,19998
1343141657,155.3099975585937500,18.9279003143310550,36.5474014282226560,233.4199066162109400,228.1053924560547000,18.9508209228515620,30.2511901855468750,50982
1343141730,149.7400054931640600,18.9738006591796880,36.5460014343261700,233.5323028564453000,227.1495971679687500,18.9801292419433600,30.2329006195068360,61307
1343141807,143.4700012207031200,19.0058002471923830,36.5463981628418000,232.3289947509765600,226.0346069335937500,19.0143203735351560,30.2760601043701170,34242
1343141872,137.4299926757812500,19.1070995330810550,36.5587005615234400,232.3484954833984400,222.5339965820312500,19.1216697692871100,30.2284202575683600,46683
1343141938,131.1300048828125000,19.1926994323730470,36.5716018676757800,237.6508026123047000,219.8173980712890600,19.2049903869628900,29.9388694763183600,37958
1343142001,124.9199981689453100,19.2262992858886720,36.5704994201660160,240.5321960449218800,218.8343048095703000,19.2351398468017580,29.7911090850830080,12019
1343142057,119.3899993896484400,19.2476005554199220,36.5686988830566400,241.9333953857422000,218.0885009765625000,19.2580108642578120,29.7167091369628900,41243
1343142120,113.0500030517578100,19.2581996917724600,36.5654983520507800,242.6502990722656200,217.8739013671875000,19.2645893096923830,29.6809291839599600,61520
1343142176,107.3899993896484400,19.2854995727539060,36.5656013488769500,243.0541992187500000,216.8050994873047000,19.2973709106445300,29.6480808258056640,27834
1343142239,101.0800018310546900,19.3533000946044920,36.5721015930175800,243.5225067138672000,214.8070983886718800,19.3586406707763670,29.6004009246826170,47559
1343142335,92.0199966430664000,19.4160995483398440,36.5722999572753900,242.2319030761718800,212.4593963623047000,19.4306507110595700,29.6287498474121100,38103
1343142398,86.9800033569336000,19.5200996398925780,36.5774993896484400,241.6501007080078000,209.4064025878906200,19.5242900848388670,29.6151294708251950,9630
1343142482,80.8199996948242200,19.5832004547119140,36.5779991149902340,249.1226043701172000,207.3352966308593800,19.5878105163574220,29.2505607604980470,11337
1343142597,72.1600036621093800,19.7724990844726560,36.5854988098144500,253.9958953857422000,201.1790008544922000,19.7766494750976560,28.9568996429443360,37219
1343142668,66.0899963378906200,19.9395008087158200,36.5956001281738300,256.2716064453125000,195.5601043701172000,19.9490203857421880,28.7864894866943360,56269
1343142733,60.5099983215332000,20.1263008117675780,36.5936012268066400,257.3452148437500000,189.2863006591797000,20.1415290832519530,28.6602191925048830,53252
1343142806,54.2999992370605500,20.5111007690429700,36.6034011840820300,259.4189147949219000,177.1152038574218800,20.5150909423828120,28.4174003601074220,17369
1343142871,48.8499984741210940,20.9157009124755860,36.6077995300293000,261.1585998535156000,164.2442932128906200,20.9103393554687500,28.1817798614501950,254
1343142953,43.2000007629394500,21.4022006988525400,36.5862007141113300,264.5710144042969000,149.8694000244140600,21.3521099090576170,27.8610801696777340,36430
1343143059,36.4700012207031250,22.7485008239746100,36.4961013793945300,261.4081115722656000,105.9168014526367200,22.7057800292968750,27.4451999664306640,44091
1343143156,31.0000000000000000,23.3272991180419920,36.4645996093750000,256.8467102050781000,85.9199600219726600,23.3235492706298830,27.3871707916259770,56477
1343143282,22.4200000762939450,25.8644008636474600,36.3963012695312500,242.0534973144531200,5.0082559585571290,25.8404598236084000,27.0301704406738280,48934
1343143447,18.0799999237060550,27.3878002166748050,36.4387016296386700,229.2581939697265600,-43.7575302124023440,27.3749198913574220,27.0102901458740230,18256
1343143569,10.0900001525878900,27.4638004302978500,36.4457015991210940,226.3961944580078000,-46.9982795715332000,27.4774494171142580,27.1027297973632800,19975
1343143646,3.5899999141693115,27.4915008544921880,36.4458999633789060,226.3056030273437500,-48.5108718872070300,27.5253391265869140,27.0885295867919920,16255
1343143735,0.2099999934434891,0.0000000000000000,0.0000000000000000,226.1389007568359400,-49.3629493713378900,27.5523204803466800,27.0860099792480470,64160
